Change the Weather History Date:

Monday, November 21, 2011

  Actual Average Record
Temperature  
Mean Temperature 35 °F 31 °F  
Max Temperature 44 °F 41 °F 70 °F (1917)
Min Temperature 25 °F 22 °F -20 °F (1946)
Degree Days  
Heating Degree Days 30 34  
Month to date heating degree days 710 627  
Since 1 July heating degree days 1406 1647  
Cooling Degree Days 0 0  
Month to date cooling degree days 0 0  
Year to date cooling degree days 365 298  
Moisture  
Dew Point 22 °F    
Average Humidity 57    
Maximum Humidity 68    
Minimum Humidity 45    
Precipitation  
Precipitation 0.00 in 0.02 in 0.72 in (1921)
Month to date precipitation 0.31 0.42  
Year to date precipitation 16.16 14.03  
Snow  
Snow 0.00 in 0.30 in 8.00 in (1921)
Month to date snowfall 5.0 5.4  
Since 1 July snowfall 5.1 11.0  
Since 1 September snowfall 5.1 10.7  
Snow Depth 2.00 in    
Sea Level Pressure  
Sea Level Pressure 29.89 in    
Wind  
Wind Speed 12 mph (SSW)    
Max Wind Speed 28 mph    
Max Gust Speed 35 mph    
Visibility 10 miles    
Events      
T = Trace of Precipitation, MM = Missing Value Source: NWS Daily Summary

Daily Weather History Graph

Daily Weather History Graph

Search for Another Location

Airport or City:

Trip Planner

Search our weather history database for the weather conditions in past years. The results will help you decide how hot, cold, wet, or windy it might be!

Date:

Astronomy

Nov. 21, 2011 Rise Set
Actual Time 7:38 AM MST 4:43 PM MST
Civil Twilight 7:04 AM MST 5:17 PM MST
Nautical Twilight 6:26 AM MST 5:55 PM MST
Astronomical Twilight 5:50 AM MST 6:31 PM MST
Moon 3:07 AM MST (11/21) 2:19 PM MST (11/21)
Length of Visible Light 10h 13m
Length of Day
9h 04m
Waning Crescent, 17% of the Moon is Illuminated
Nov 21
Waning Crescent
Nov 24
New
Dec 2
First Quarter
Dec 10
Full
Dec 17
Last Quarter

Hourly Weather History & Observations

Time (MST) Temp. Windchill Dew Point Humidity Pressure Visibility Wind Dir Wind Speed Gust Speed Precip Events Conditions
12:53 AM 27.0 °F 18.7 °F 16.0 °F 63% 29.95 in 10.0 mi South 8.1 mph - N/A   Clear
1:53 AM 26.1 °F 17.6 °F 16.0 °F 66% 29.94 in 10.0 mi SW 8.1 mph - N/A   Clear
2:53 AM 30.2 °F 19.8 °F 15.8 °F 55% 29.82 in 10.0 mi SW 13.8 mph - N/A   Clear
3:53 AM 28.9 °F 20.4 °F 17.1 °F 61% 29.93 in 10.0 mi SSW 9.2 mph - N/A   Clear
4:53 AM 28.9 °F - 17.1 °F 61% 29.93 in 10.0 mi Calm Calm - N/A   Clear
5:53 AM 32.0 °F 23.6 °F 19.9 °F 61% 29.92 in 10.0 mi SSW 10.4 mph - N/A   Clear
6:53 AM 32.0 °F 22.5 °F 19.9 °F 61% 29.92 in 10.0 mi SW 12.7 mph - N/A   Clear
7:53 AM 32.0 °F 23.6 °F 19.9 °F 61% 29.94 in 10.0 mi SSW 10.4 mph - N/A   Clear
8:53 AM 34.0 °F 24.2 °F 21.0 °F 59% 29.93 in 10.0 mi SSW 15.0 mph - N/A   Clear
9:53 AM 34.0 °F 25.5 °F 21.9 °F 61% 29.90 in 10.0 mi SSW 11.5 mph - N/A   Clear
10:53 AM 37.0 °F 31.6 °F 23.0 °F 57% 29.89 in 10.0 mi SW 6.9 mph - N/A   Clear
11:53 AM 37.9 °F 31.5 °F 25.0 °F 60% 29.87 in 10.0 mi SSW 9.2 mph - N/A   Clear
12:53 PM 42.1 °F 35.2 °F 24.1 °F 49% 29.83 in 10.0 mi SW 12.7 mph - N/A   Clear
1:53 PM 44.1 °F 36.8 °F 24.1 °F 45% 29.82 in 10.0 mi SW 16.1 mph 24.2 mph N/A   Clear
2:53 PM 42.1 °F 36.1 °F 24.1 °F 49% 29.82 in 10.0 mi SW 10.4 mph - N/A   Clear
3:53 PM 41.0 °F 34.7 °F 24.1 °F 51% 29.84 in 10.0 mi SW 10.4 mph 19.6 mph N/A   Clear
4:53 PM 39.0 °F 31.4 °F 24.1 °F 55% 29.87 in 10.0 mi SW 12.7 mph - N/A   Clear
5:53 PM 37.0 °F 29.3 °F 24.1 °F 59% 29.88 in 10.0 mi SSW 11.5 mph - N/A   Clear
6:53 PM 37.0 °F 30.4 °F 24.1 °F 59% 29.91 in 10.0 mi SSW 9.2 mph - N/A   Clear
7:53 PM 37.9 °F 30.5 °F 24.1 °F 57% 29.91 in 10.0 mi SSW 11.5 mph - N/A   Clear
8:53 PM 39.0 °F 29.6 °F 23.0 °F 53% 29.90 in 10.0 mi SW 18.4 mph - N/A   Clear
9:53 PM 39.0 °F 28.3 °F 24.1 °F 55% 29.88 in 10.0 mi SSW 24.2 mph 32.2 mph N/A   Clear
10:53 PM 39.9 °F 32.9 °F 24.1 °F 53% 29.90 in 10.0 mi SSW 11.5 mph 25.3 mph N/A   Clear
11:53 PM 39.0 °F 31.4 °F 23.0 °F 53% 29.92 in 10.0 mi SSW 12.7 mph 19.6 mph N/A   Clear